Time,TemperatureF,DewpointF,PressureIn,WindDirection,WindDirectionDegrees,WindSpeedMPH,WindSpeedGustMPH,Humidity,HourlyPrecipIn,Conditions,Clouds,dailyrainin,SoftwareType,DateUTC
2013-12-22 00:00:00,29.9,29.0,29.73,NNE,31,0.0,3.0,96,0.00,,,0.00,weatherlink.com 1.10,2013-12-22 06:00:00,
2013-12-22 00:15:00,30.1,29.0,29.71,NNE,31,0.0,1.0,96,0.00,,,0.00,weatherlink.com 1.10,2013-12-22 06:15:00,
2013-12-22 00:30:00,30.0,29.0,29.70,NNE,31,0.0,0.0,96,0.00,,,0.00,weatherlink.com 1.10,2013-12-22 06:30:00,
2013-12-22 00:45:00,29.8,29.0,29.68,NNE,31,1.0,2.0,96,0.00,,,0.00,weatherlink.com 1.10,2013-12-22 06:45:00,
2013-12-22 01:00:00,29.7,29.0,29.68,NNE,31,0.0,2.0,96,0.00,,,0.00,weatherlink.com 1.10,2013-12-22 07:00:00,
2013-12-22 01:15:00,29.7,29.0,29.65,NNE,31,4.0,5.0,96,0.00,,,0.00,weatherlink.com 1.10,2013-12-22 07:15:00,
2013-12-22 01:30:00,29.6,29.0,29.66,NNE,31,0.0,4.0,96,0.00,,,0.00,weatherlink.com 1.10,2013-12-22 07:30:00,
2013-12-22 01:45:00,29.7,29.0,29.69,NNE,31,0.0,1.0,96,0.00,,,0.00,weatherlink.com 1.10,2013-12-22 07:45:00,
2013-12-22 02:00:00,29.8,29.0,29.70,NNE,31,0.0,0.0,96,0.00,,,0.00,weatherlink.com 1.10,2013-12-22 08:00:00,
2013-12-22 02:15:00,29.8,29.0,29.70,NNE,31,0.0,2.0,96,0.00,,,0.00,weatherlink.com 1.10,2013-12-22 08:15:00,
2013-12-22 02:30:00,29.8,29.0,29.71,NNE,31,0.0,1.0,96,0.00,,,0.00,weatherlink.com 1.10,2013-12-22 08:30:00,
2013-12-22 02:45:00,29.9,29.0,29.73,NNE,31,1.0,2.0,96,0.00,,,0.00,weatherlink.com 1.10,2013-12-22 08:45:00,
2013-12-22 03:00:00,29.9,29.0,29.73,NNE,31,0.0,3.0,96,0.00,,,0.00,weatherlink.com 1.10,2013-12-22 09:00:00,
2013-12-22 03:15:00,30.0,29.0,29.75,NNE,31,0.0,2.0,96,0.00,,,0.00,weatherlink.com 1.10,2013-12-22 09:15:00,
2013-12-22 03:30:00,30.1,29.0,29.74,NNE,31,1.0,3.0,96,0.00,,,0.00,weatherlink.com 1.10,2013-12-22 09:30:00,
2013-12-22 03:45:00,30.0,29.0,29.75,NNE,31,1.0,2.0,96,0.00,,,0.00,weatherlink.com 1.10,2013-12-22 09:45:00,
2013-12-22 04:00:00,29.9,29.0,29.75,NNE,31,2.0,4.0,96,0.00,,,0.00,weatherlink.com 1.10,2013-12-22 10:00:00,
2013-12-22 04:15:00,29.9,29.0,29.76,NNE,31,2.0,4.0,96,0.00,,,0.00,weatherlink.com 1.10,2013-12-22 10:15:00,
2013-12-22 04:30:00,29.8,29.0,29.76,NNE,31,0.0,3.0,96,0.00,,,0.00,weatherlink.com 1.10,2013-12-22 10:30:00,
2013-12-22 04:45:00,29.7,29.0,29.76,NNE,31,2.0,3.0,96,0.00,,,0.00,weatherlink.com 1.10,2013-12-22 10:45:00,
2013-12-22 05:00:00,29.7,29.0,29.77,NNE,31,0.0,3.0,96,0.00,,,0.00,weatherlink.com 1.10,2013-12-22 11:00:00,
2013-12-22 05:15:00,29.6,29.0,29.78,NNE,31,1.0,3.0,96,0.00,,,0.00,weatherlink.com 1.10,2013-12-22 11:15:00,
2013-12-22 05:30:00,29.5,29.0,29.79,NNE,31,1.0,3.0,96,0.00,,,0.00,weatherlink.com 1.10,2013-12-22 11:30:00,
2013-12-22 05:45:00,29.4,28.0,29.81,NNE,31,2.0,4.0,96,0.00,,,0.00,weatherlink.com 1.10,2013-12-22 11:45:00,
2013-12-22 06:00:00,29.3,28.0,29.82,NNE,31,0.0,5.0,96,0.00,,,0.00,weatherlink.com 1.10,2013-12-22 12:00:00,
2013-12-22 06:15:00,29.4,28.0,29.82,NNE,31,1.0,4.0,96,0.00,,,0.00,weatherlink.com 1.10,2013-12-22 12:15:00,
2013-12-22 06:30:00,29.4,28.0,29.83,NNE,31,2.0,5.0,96,0.00,,,0.00,weatherlink.com 1.10,2013-12-22 12:30:00,
2013-12-22 06:46:00,29.3,28.0,29.86,NNE,31,2.0,5.0,96,0.00,,,0.00,weatherlink.com 1.10,2013-12-22 12:46:00,
2013-12-22 07:01:00,29.2,28.0,29.86,NNE,31,1.0,4.0,96,0.00,,,0.00,weatherlink.com 1.10,2013-12-22 13:01:00,
2013-12-22 07:16:00,29.0,28.0,29.87,NNE,31,3.0,6.0,96,0.00,,,0.00,weatherlink.com 1.10,2013-12-22 13:16:00,
2013-12-22 07:31:00,28.9,28.0,29.88,NNE,31,3.0,7.0,96,0.00,,,0.00,weatherlink.com 1.10,2013-12-22 13:31:00,
2013-12-22 07:46:00,28.8,28.0,29.88,NNE,31,5.0,7.0,96,0.00,,,0.00,weatherlink.com 1.10,2013-12-22 13:46:00,
2013-12-22 08:01:00,28.6,28.0,29.89,NNE,31,4.0,6.0,96,0.00,,,0.00,weatherlink.com 1.10,2013-12-22 14:01:00,
2013-12-22 08:16:00,28.4,27.0,29.90,NNE,31,3.0,6.0,95,0.00,,,0.00,weatherlink.com 1.10,2013-12-22 14:16:00,
2013-12-22 08:31:00,28.3,27.0,29.91,NNE,31,1.0,6.0,95,0.00,,,0.00,weatherlink.com 1.10,2013-12-22 14:31:00,
2013-12-22 08:46:00,28.2,27.0,29.93,NNE,31,2.0,5.0,96,0.00,,,0.00,weatherlink.com 1.10,2013-12-22 14:46:00,
2013-12-22 09:01:00,27.9,27.0,29.94,NNE,31,5.0,8.0,96,0.00,,,0.00,weatherlink.com 1.10,2013-12-22 15:01:00,
2013-12-22 09:16:00,27.7,27.0,29.95,NNE,31,2.0,8.0,95,0.00,,,0.00,weatherlink.com 1.10,2013-12-22 15:16:00,
2013-12-22 09:31:00,27.6,26.0,29.95,NNE,31,4.0,7.0,95,0.00,,,0.00,weatherlink.com 1.10,2013-12-22 15:31:00,
2013-12-22 09:46:00,27.9,27.0,29.96,NNE,31,3.0,5.0,95,0.00,,,0.00,weatherlink.com 1.10,2013-12-22 15:46:00,
2013-12-22 10:01:00,28.1,27.0,29.97,NNE,31,3.0,6.0,96,0.00,,,0.00,weatherlink.com 1.10,2013-12-22 16:01:00,
2013-12-22 10:16:00,28.1,27.0,29.97,NNE,31,3.0,9.0,95,0.00,,,0.00,weatherlink.com 1.10,2013-12-22 16:16:00,
2013-12-22 10:31:00,28.2,27.0,29.98,NNE,31,3.0,7.0,95,0.00,,,0.00,weatherlink.com 1.10,2013-12-22 16:31:00,
2013-12-22 10:46:00,28.2,27.0,29.97,NNE,31,3.0,7.0,95,0.00,,,0.00,weatherlink.com 1.10,2013-12-22 16:46:00,
2013-12-22 11:01:00,28.3,27.0,29.97,NNE,31,3.0,6.0,95,0.00,,,0.00,weatherlink.com 1.10,2013-12-22 17:01:00,
2013-12-22 11:16:00,28.4,27.0,29.98,NNE,31,3.0,8.0,95,0.00,,,0.00,weatherlink.com 1.10,2013-12-22 17:16:00,
2013-12-22 11:31:00,28.3,27.0,30.00,NNE,31,2.0,7.0,95,0.00,,,0.00,weatherlink.com 1.10,2013-12-22 17:31:00,
2013-12-22 11:46:00,28.1,27.0,30.01,NNE,31,4.0,7.0,95,0.00,,,0.00,weatherlink.com 1.10,2013-12-22 17:46:00,
2013-12-22 12:01:00,28.0,27.0,30.02,NNE,31,6.0,7.0,95,0.00,,,0.00,weatherlink.com 1.10,2013-12-22 18:01:00,
2013-12-22 12:32:00,27.8,27.0,30.02,NNE,31,2.0,8.0,95,0.00,,,0.00,weatherlink.com 1.10,2013-12-22 18:32:00,
2013-12-22 12:47:00,27.8,27.0,30.03,NNE,31,9.0,9.0,95,0.00,,,0.00,weatherlink.com 1.10,2013-12-22 18:47:00,
2013-12-22 13:02:00,27.8,26.0,30.03,NNE,31,5.0,6.0,94,0.00,,,0.00,weatherlink.com 1.10,2013-12-22 19:02:00,
2013-12-22 13:17:00,27.7,26.0,30.04,NNE,31,4.0,6.0,94,0.00,,,0.00,weatherlink.com 1.10,2013-12-22 19:17:00,
2013-12-22 13:32:00,27.7,26.0,30.04,NNE,31,2.0,7.0,94,0.00,,,0.00,weatherlink.com 1.10,2013-12-22 19:32:00,
2013-12-22 13:47:00,27.6,26.0,30.05,NNE,31,2.0,6.0,95,0.00,,,0.00,weatherlink.com 1.10,2013-12-22 19:47:00,
2013-12-22 14:02:00,27.4,26.0,30.05,NNE,31,4.0,6.0,94,0.00,,,0.00,weatherlink.com 1.10,2013-12-22 20:02:00,
2013-12-22 14:17:00,27.3,26.0,30.07,NNE,31,2.0,4.0,94,0.00,,,0.00,weatherlink.com 1.10,2013-12-22 20:17:00,
2013-12-22 14:32:00,27.2,26.0,30.07,NNE,31,3.0,6.0,94,0.00,,,0.00,weatherlink.com 1.10,2013-12-22 20:32:00,
2013-12-22 14:47:00,27.1,26.0,30.08,NNE,31,4.0,6.0,94,0.00,,,0.00,weatherlink.com 1.10,2013-12-22 20:47:00,
2013-12-22 15:02:00,26.9,25.0,30.09,NNE,31,2.0,7.0,94,0.00,,,0.00,weatherlink.com 1.10,2013-12-22 21:02:00,
2013-12-22 15:17:00,26.6,25.0,30.09,NNE,31,2.0,5.0,94,0.00,,,0.00,weatherlink.com 1.10,2013-12-22 21:17:00,
2013-12-22 15:32:00,26.4,25.0,30.10,NNE,31,3.0,7.0,94,0.00,,,0.00,weatherlink.com 1.10,2013-12-22 21:32:00,
2013-12-22 15:47:00,26.3,25.0,30.11,NNE,31,1.0,5.0,94,0.00,,,0.00,weatherlink.com 1.10,2013-12-22 21:47:00,
2013-12-22 16:02:00,26.0,25.0,30.12,NNE,31,1.0,7.0,94,0.00,,,0.00,weatherlink.com 1.10,2013-12-22 22:02:00,
2013-12-22 16:17:00,25.5,24.0,30.13,NNE,31,3.0,7.0,94,0.00,,,0.00,weatherlink.com 1.10,2013-12-22 22:17:00,
2013-12-22 16:32:00,25.3,24.0,30.14,NNE,31,1.0,6.0,94,0.00,,,0.00,weatherlink.com 1.10,2013-12-22 22:32:00,
2013-12-22 16:47:00,24.9,23.0,30.14,NNE,31,5.0,8.0,93,0.00,,,0.00,weatherlink.com 1.10,2013-12-22 22:47:00,
2013-12-22 17:02:00,24.7,23.0,30.15,NNE,31,4.0,5.0,93,0.00,,,0.00,weatherlink.com 1.10,2013-12-22 23:02:00,
2013-12-22 17:17:00,24.6,23.0,30.16,NNE,31,3.0,5.0,94,0.00,,,0.00,weatherlink.com 1.10,2013-12-22 23:17:00,
2013-12-22 17:32:00,24.2,23.0,30.17,NNE,31,3.0,9.0,93,0.00,,,0.00,weatherlink.com 1.10,2013-12-22 23:32:00,
2013-12-22 17:47:00,24.0,22.0,30.18,NNE,31,2.0,8.0,93,0.00,,,0.00,weatherlink.com 1.10,2013-12-22 23:47:00,
2013-12-22 18:02:00,24.0,22.0,30.19,NNE,31,5.0,5.0,93,0.00,,,0.00,weatherlink.com 1.10,2013-12-23 00:02:00,
2013-12-22 18:17:00,23.9,22.0,30.20,NNE,31,3.0,7.0,93,0.00,,,0.00,weatherlink.com 1.10,2013-12-23 00:17:00,
2013-12-22 18:33:00,23.9,22.0,30.21,NNE,31,2.0,5.0,93,0.00,,,0.00,weatherlink.com 1.10,2013-12-23 00:33:00,
2013-12-22 18:48:00,23.9,22.0,30.21,NNE,31,1.0,5.0,93,0.00,,,0.00,weatherlink.com 1.10,2013-12-23 00:48:00,
2013-12-22 19:03:00,23.8,22.0,30.22,NNE,31,2.0,6.0,93,0.00,,,0.00,weatherlink.com 1.10,2013-12-23 01:03:00,
2013-12-22 19:18:00,23.8,22.0,30.23,NNE,31,1.0,7.0,93,0.00,,,0.00,weatherlink.com 1.10,2013-12-23 01:18:00,
2013-12-22 19:33:00,23.8,22.0,30.24,NNE,31,5.0,6.0,93,0.00,,,0.00,weatherlink.com 1.10,2013-12-23 01:33:00,
2013-12-22 19:48:00,23.5,22.0,30.25,NNE,31,3.0,7.0,92,0.00,,,0.00,weatherlink.com 1.10,2013-12-23 01:48:00,
2013-12-22 20:03:00,23.2,21.0,30.25,NNE,31,3.0,7.0,92,0.00,,,0.00,weatherlink.com 1.10,2013-12-23 02:03:00,
2013-12-22 20:18:00,23.1,21.0,30.26,NNE,31,3.0,5.0,92,0.00,,,0.00,weatherlink.com 1.10,2013-12-23 02:18:00,
2013-12-22 20:33:00,23.0,21.0,30.27,NNE,31,4.0,7.0,92,0.00,,,0.00,weatherlink.com 1.10,2013-12-23 02:33:00,
2013-12-22 20:48:00,23.0,21.0,30.27,NNE,31,3.0,6.0,92,0.00,,,0.00,weatherlink.com 1.10,2013-12-23 02:48:00,
2013-12-22 21:03:00,22.9,21.0,30.27,NNE,31,2.0,7.0,92,0.00,,,0.00,weatherlink.com 1.10,2013-12-23 03:03:00,
2013-12-22 21:18:00,22.8,21.0,30.28,NNE,31,4.0,7.0,92,0.00,,,0.00,weatherlink.com 1.10,2013-12-23 03:18:00,
2013-12-22 21:33:00,22.5,20.0,30.29,NNE,31,3.0,7.0,91,0.00,,,0.00,weatherlink.com 1.10,2013-12-23 03:33:00,
2013-12-22 21:48:00,22.3,20.0,30.30,NNE,31,2.0,7.0,92,0.00,,,0.00,weatherlink.com 1.10,2013-12-23 03:48:00,
2013-12-22 22:03:00,22.1,20.0,30.30,NNE,31,1.0,6.0,91,0.00,,,0.00,weatherlink.com 1.10,2013-12-23 04:03:00,
2013-12-22 22:18:00,21.6,19.0,30.32,NNE,31,2.0,8.0,90,0.00,,,0.00,weatherlink.com 1.10,2013-12-23 04:18:00,
2013-12-22 22:33:00,21.3,19.0,30.32,NNE,31,4.0,7.0,90,0.00,,,0.00,weatherlink.com 1.10,2013-12-23 04:33:00,
2013-12-22 22:48:00,21.1,19.0,30.33,NNE,31,3.0,6.0,91,0.00,,,0.00,weatherlink.com 1.10,2013-12-23 04:48:00,
2013-12-22 23:03:00,20.7,18.0,30.34,NNE,31,2.0,6.0,90,0.00,,,0.00,weatherlink.com 1.10,2013-12-23 05:03:00,
2013-12-22 23:18:00,20.3,18.0,30.35,NNE,31,3.0,8.0,90,0.00,,,0.00,weatherlink.com 1.10,2013-12-23 05:18:00,
2013-12-22 23:33:00,19.8,17.0,30.35,NNE,31,4.0,9.0,90,0.00,,,0.00,weatherlink.com 1.10,2013-12-23 05:33:00,
2013-12-22 23:48:00,18.9,16.0,30.36,NNE,31,3.0,7.0,89,0.00,,,0.00,weatherlink.com 1.10,2013-12-23 05:48:00,